Wind_Speed
8 7 7 7 8 7 3 1 4 7 9 8 7 8 9 8 7 5 5 5 4 3 3 3 2 1 2 3 4 4 5 5 5 5 6 6 6 6 6 6 5 5 4 4 4 4 4 3 3
9 9 9 9 9 11 10 4 6 8 10 9 9 9 10 8 7 6 6 5 5 5 4 3 3 3 3 4 5 6 6 6 7 7 7 7 7 8 8 7 7 6 5 5 5 5 4 4 4
11 11 11 10 9 11 13 10 12 11 11 11 11 11 10 9 8 7 7 6 6 5 5 4 4 5 5 6 7 8 8 8 9 9 9 9 9 9 9 9 8 8 7 7 6 6 6 6 5
13 13 13 12 8 11 15 15 15 14 13 12 13 12 11 11 10 9 8 6 6 6 5 5 6 6 7 7 8 9 9 10 10 11 11 11 11 10 10 10 10 9 9 8 8 8 7 7 7
15 14 13 11 9 15 17 18 18 17 15 14 15 15 13 11 11 9 8 7 7 7 7 6 7 8 8 8 9 10 11 11 12 12 12 12 12 12 11 11 11 11 11 10 10 9 9 8 8
15 15 13 11 11 17 20 21 21 20 19 18 17 17 14 11 11 9 8 8 7 7 8 7 8 8 9 10 10 11 12 13 13 14 14 14 13 13 13 13 13 13 13 12 12 12 11 11 10
16 15 14 13 14 18 21 24 23 23 20 18 18 20 18 13 9 9 8 8 8 7 8 8 9 9 10 11 12 13 13 14 15 15 15 15 15 15 15 15 15 15 14 14 14 14 14 13 13
15 15 14 13 14 16 23 27 25 25 22 21 22 23 22 13 8 9 9 9 8 8 8 9 10 11 12 13 14 15 15 16 16 16 17 17 18 18 18 18 18 17 17 16 16 16 16 15 15
13 13 13 14 16 17 23 26 25 26 24 24 25 25 22 13 10 10 10 11 9 9 10 10 11 12 14 15 16 18 18 18 18 19 20 21 21 21 21 20 19 19 19 18 18 18 18 17 17
12 13 14 19 22 23 25 27 25 23 24 24 26 26 22 14 10 11 11 12 11 12 12 12 13 14 15 17 18 19 19 19 20 22 23 23 23 24 22 21 20 20 21 20 20 20 20 19 19
12 14 17 20 20 22 23 24 24 23 24 25 22 22 21 17 14 13 13 13 13 13 14 13 15 16 17 18 19 19 19 20 21 23 23 23 23 24 24 22 21 20 19 20 21 21 21 20 20
12 13 15 17 18 19 21 23 23 26 24 24 22 19 19 16 16 14 15 13 13 15 15 15 16 18 19 20 20 20 19 21 21 21 22 21 21 20 21 21 20 19 19 18 19 21 20 21 21
11 12 13 14 15 18 19 20 21 24 26 22 21 18 19 17 18 16 16 15 15 16 16 16 17 18 20 21 21 19 20 20 20 19 19 19 19 19 20 19 18 18 18 18 18 19 20 19 19
9 10 11 12 12 15 15 15 18 22 23 20 18 18 18 19 20 17 15 16 16 15 17 17 18 18 19 20 21 19 19 19 18 17 18 19 19 19 19 19 18 19 19 18 19 20 21 20 20
9 11 13 14 14 13 14 14 16 17 18 17 16 16 18 19 16 15 13 16 17 17 18 18 18 18 19 19 19 17 18 17 17 17 18 19 19 20 19 19 20 20 20 21 21 21 21 21 21
13 14 16 14 16 15 15 14 14 13 12 12 14 16 15 17 16 14 14 14 16 16 17 17 18 19 19 17 16 15 17 16 17 18 18 18 19 20 20 20 21 21 22 22 23 23 22 23 24
17 17 18 18 16 16 16 11 10 12 11 12 14 15 14 12 14 14 13 14 15 15 15 15 16 16 16 16 15 15 16 16 17 18 19 19 20 21 22 23 22 23 23 24 24 24 24 25 25
13 15 17 17 16 15 14 10 8 6 10 12 14 13 13 11 11 12 12 12 14 14 14 14 14 14 14 14 15 16 17 18 18 19 20 21 22 23 24 25 25 25 26 26 26 26 26 27 27
10 12 15 16 14 13 11 11 8 6 7 10 13 13 12 11 11 12 12 12 12 13 13 13 14 14 15 14 15 17 17 18 19 20 21 23 24 25 26 27 27 27 27 27 27 27 27 27 28
10 13 14 14 12 10 9 8 7 5 5 10 11 11 11 11 11 12 12 12 12 11 12 12 14 14 15 16 16 17 17 19 21 22 23 24 25 26 27 27 27 27 27 27 27 27 27 27 27
12 13 13 13 12 10 7 6 6 5 6 8 9 9 9 9 10 10 11 12 11 11 12 13 13 15 15 16 16 17 19 21 22 23 24 25 25 26 26 26 27 27 27 27 27 27 27 27 28
12 11 10 10 10 8 8 6 7 6 4 3 4 6 7 7 8 9 9 10 10 11 12 12 13 14 15 16 17 19 20 22 23 24 24 24 25 25 26 26 27 27 27 27 27 27 27 27 27
10 8 7 9 10 7 7 7 7 4 4 2 2 4 5 5 5 6 7 7 8 9 10 11 13 15 16 17 19 20 22 23 23 24 24 25 25 26 26 26 26 26 26 27 27 27 27 27 28
8 7 9 11 10 7 9 8 7 5 4 4 2 2 3 4 4 5 6 6 8 9 11 12 14 16 17 18 19 20 22 23 23 24 24 25 26 26 26 26 26 26 27 27 27 27 28 28 29
8 8 12 15 13 11 12 9 9 8 5 5 4 3 4 4 4 5 6 7 9 11 12 14 15 17 18 18 19 20 21 22 23 24 25 26 27 27 26 26 26 27 27 28 28 28 29 30 30
9 7 10 12 13 9 10 10 10 9 7 7 6 5 5 5 5 6 6 8 10 12 14 15 16 17 18 19 20 20 21 22 23 24 25 26 27 27 27 28 28 29 29 30 30 30 31 31 32
8 6 7 8 9 7 5 9 9 9 9 9 8 8 8 7 7 8 8 10 12 14 15 16 17 18 18 19 20 21 22 23 24 25 26 27 27 28 29 30 30 31 31 32 32 32 33 33 33
9 8 7 4 8 9 5 7 9 11 12 11 11 10 10 9 10 10 10 12 13 14 15 17 18 19 19 20 21 21 22 23 24 26 27 28 29 30 31 31 31 32 33 33 34 34 34 34 34
10 8 8 7 7 8 11 9 10 12 14 14 13 12 11 11 11 12 13 13 14 15 16 17 18 19 19 20 22 22 23 24 26 27 28 29 30 31 32 32 33 34 34 35 35 35 35 35 35
9 9 10 9 7 7 11 14 13 15 16 15 15 14 13 13 14 14 14 15 15 16 17 18 18 19 19 21 22 23 25 26 27 29 30 31 32 33 34 34 35 36 36 36 36 36 36 37 37
Wind_Direction
325 322 318 317 306 290 260 169 274 280 283 283 269 266 264 265 277 281 284 286 281 281 289 283 272 282 303 312 313 313 316 316 315 317 319 319 319 317 316 315 317 323 332 338 339 338 341 343 339
307 303 301 301 298 306 303 292 284 292 293 285 270 262 260 259 267 276 280 285 284 278 282 287 285 291 302 309 309 309 310 310 311 311 310 310 311 310 308 307 308 312 316 320 321 322 322 321 317
294 291 290 290 292 303 300 297 290 293 288 277 270 263 270 267 269 271 276 281 279 276 271 278 287 293 298 302 302 303 304 304 306 306 305 304 305 304 301 301 301 303 306 308 308 307 306 304 301
288 284 281 277 279 279 284 282 280 285 282 271 266 262 260 262 267 267 270 272 269 269 270 275 285 295 297 298 299 301 303 304 303 303 303 301 300 300 298 296 297 297 298 300 300 301 299 296 291
282 279 277 278 285 275 267 268 271 272 267 262 265 263 251 254 260 264 270 267 267 267 268 278 287 294 296 298 300 302 304 304 302 302 301 298 296 295 295 293 293 293 293 293 292 292 292 293 289
277 273 272 274 276 273 275 272 266 267 260 260 261 263 255 247 256 263 269 271 270 270 275 281 288 295 298 299 300 300 301 302 302 300 299 296 294 293 292 290 289 288 287 286 286 286 285 285 285
275 271 267 263 257 269 273 270 270 263 259 254 256 260 260 241 247 264 274 281 282 279 277 283 289 295 297 296 295 295 297 298 299 297 297 294 290 288 287 285 283 283 283 281 282 283 282 280 279
274 270 268 267 263 266 269 270 270 265 255 252 254 259 255 237 242 264 276 281 287 283 283 285 290 294 296 295 292 291 292 293 292 292 292 291 289 286 283 281 279 277 277 276 277 279 281 280 276
274 268 266 258 251 249 259 265 266 265 259 251 249 253 252 248 249 264 274 284 285 285 289 293 292 294 295 293 291 291 290 290 288 288 287 285 283 282 279 277 276 274 271 271 272 274 276 277 274
274 264 258 253 250 248 255 261 262 259 254 250 248 251 257 253 250 258 269 280 285 286 290 295 291 290 294 293 291 290 289 290 290 289 290 288 283 279 278 275 275 273 269 268 267 268 271 273 272
286 269 261 260 262 260 262 264 263 256 248 246 240 241 246 250 246 253 263 272 281 286 291 299 298 295 295 293 294 294 292 292 291 289 290 291 288 282 279 279 278 277 276 271 263 262 266 271 270
307 295 287 279 277 273 265 261 260 253 250 241 236 231 244 253 248 255 266 269 278 282 288 294 297 294 292 292 292 293 292 293 294 296 296 293 294 292 285 283 281 280 283 281 274 267 266 270 266
319 309 303 302 298 289 280 268 260 255 257 249 241 232 241 251 249 254 262 271 277 279 285 291 295 292 293 292 292 292 291 296 298 299 298 296 298 299 295 288 286 284 285 282 279 278 270 270 267
331 313 306 307 306 299 292 274 262 260 258 251 242 242 242 251 246 246 256 272 276 281 284 288 290 293 295 297 294 293 295 298 299 301 300 299 300 301 299 293 288 287 285 285 285 281 277 274 272
348 335 330 331 319 301 291 272 261 252 252 247 242 241 241 250 255 264 269 273 276 280 285 287 292 294 295 297 294 295 299 301 303 303 304 302 301 301 301 297 293 290 287 287 287 287 283 278 278
355 340 331 322 309 301 292 276 254 248 240 237 235 236 243 250 260 267 273 274 278 282 287 289 290 291 291 296 297 297 299 300 303 306 307 305 304 303 302 300 296 294 294 293 290 288 284 280 278
350 334 323 315 310 308 304 285 258 236 231 232 237 242 254 255 258 267 274 279 282 283 287 290 292 294 296 295 293 294 297 299 301 304 304 303 303 303 301 301 299 297 294 293 290 288 285 281 279
327 317 313 312 314 312 306 300 288 233 227 232 241 248 256 260 267 277 282 284 282 280 286 291 294 297 298 295 293 295 297 300 302 303 303 303 303 302 301 300 298 295 293 292 290 288 285 281 279
314 314 312 314 316 319 317 313 302 277 235 237 246 254 259 269 277 279 282 285 284 285 288 291 294 297 300 301 299 297 299 302 304 305 305 304 303 302 301 299 298 296 294 292 290 287 284 282 280
323 320 322 328 327 327 327 325 312 324 263 250 244 250 258 271 271 274 278 283 285 290 293 293 294 298 301 302 302 303 305 306 306 307 307 306 305 304 302 301 299 297 295 294 292 288 285 284 281
319 324 331 329 329 330 335 343 340 336 292 256 248 255 262 265 267 271 275 283 287 289 294 295 297 301 305 308 310 309 309 309 310 310 309 309 308 306 305 304 302 299 297 295 293 289 287 285 283
318 326 329 328 327 334 344 4 359 350 327 275 250 252 261 267 268 273 281 283 287 295 301 302 306 309 311 313 312 312 311 312 312 313 312 311 310 309 308 306 304 302 299 296 294 291 288 286 284
318 322 324 319 311 321 352 359 355 10 19 5 285 262 270 264 272 280 290 296 303 308 310 312 313 314 314 314 313 314 315 315 316 315 315 314 313 312 311 309 307 305 303 300 297 294 291 289 286
318 319 329 324 323 348 2 350 339 15 30 21 4 304 293 302 297 307 304 307 313 316 318 318 317 318 319 318 317 317 317 317 317 317 317 316 315 314 313 311 309 307 305 303 300 297 295 292 289
317 329 340 351 360 11 8 350 355 8 10 6 -0 338 321 322 319 309 307 313 317 319 321 320 320 322 323 322 321 321 320 320 320 320 319 318 317 316 315 313 311 309 307 304 302 299 296 294 291
309 319 330 339 339 351 350 346 346 5 5 1 356 347 335 324 321 319 318 319 320 322 323 324 325 326 326 325 325 324 322 321 321 321 320 319 319 319 318 315 313 310 308 306 303 301 298 295 291
286 280 294 307 311 294 300 328 346 358 355 349 344 340 335 330 327 324 324 324 326 328 330 329 329 328 327 326 326 325 323 322 322 323 323 322 321 320 318 316 313 310 308 306 304 301 298 295 291
294 280 274 274 309 323 301 288 310 338 342 338 332 330 328 326 324 323 324 325 327 329 331 329 329 328 328 327 326 324 323 323 323 323 323 322 321 319 318 316 313 311 309 306 303 301 298 295 292
289 289 277 263 261 293 311 307 309 321 328 327 324 322 323 323 322 322 324 325 325 326 328 327 326 326 326 325 324 324 324 324 324 324 323 322 320 320 318 316 315 313 310 308 304 301 298 294 291
252 268 273 273 271 280 297 295 296 313 317 317 318 318 319 319 320 320 321 320 321 323 323 323 323 323 322 323 323 323 324 324 324 324 323 322 321 320 318 316 315 313 311 309 306 302 299 296 292
Height
5916 5916 5915 5915 5915 5912 5908 5907 5911 5910 5910 5909 5909 5907 5906 5906 5906 5908 5906 5906 5907 5907 5908 5908 5909 5909 5909 5909 5910 5909 5909 5909 5909 5908 5908 5908 5907 5906 5906 5905 5905 5904 5904 5904 5903 5903 5902 5902 5902
5915 5914 5914 5914 5913 5910 5906 5904 5908 5908 5909 5908 5907 5906 5904 5905 5905 5905 5905 5906 5906 5906 5907 5908 5908 5908 5909 5909 5909 5909 5909 5909 5908 5908 5908 5907 5907 5906 5906 5905 5905 5904 5904 5903 5903 5902 5902 5902 5902
5913 5912 5913 5913 5912 5909 5906 5906 5908 5907 5907 5906 5905 5905 5903 5903 5904 5904 5904 5905 5905 5905 5906 5907 5907 5907 5908 5908 5908 5908 5908 5908 5907 5907 5907 5907 5906 5906 5905 5904 5904 5904 5903 5903 5903 5902 5902 5902 5901
5910 5910 5911 5911 5911 5910 5908 5907 5906 5906 5905 5904 5903 5902 5902 5903 5903 5903 5903 5903 5904 5904 5905 5905 5906 5906 5906 5907 5907 5907 5907 5907 5906 5906 5906 5905 5905 5904 5904 5903 5903 5903 5902 5902 5902 5902 5901 5901 5901
5907 5908 5908 5908 5909 5908 5906 5904 5902 5904 5902 5900 5900 5899 5898 5901 5901 5902 5901 5902 5902 5903 5903 5904 5904 5905 5905 5905 5905 5905 5905 5905 5905 5905 5904 5904 5903 5903 5902 5902 5902 5901 5901 5901 5901 5900 5900 5900 5900
5904 5904 5905 5905 5908 5907 5904 5901 5901 5900 5899 5896 5896 5896 5893 5896 5898 5899 5900 5900 5901 5901 5902 5902 5903 5903 5903 5904 5904 5904 5904 5904 5903 5903 5902 5902 5902 5901 5901 5900 5900 5900 5899 5899 5899 5899 5899 5899 5898
5901 5901 5901 5903 5905 5904 5902 5898 5896 5895 5894 5892 5892 5891 5890 5890 5894 5897 5898 5898 5899 5899 5900 5900 5901 5901 5902 5902 5902 5902 5902 5901 5901 5901 5900 5900 5899 5899 5899 5898 5898 5897 5897 5897 5897 5897 5897 5897 5897
5897 5898 5898 5900 5902 5903 5898 5894 5893 5891 5890 5890 5890 5887 5885 5885 5890 5894 5895 5896 5897 5896 5897 5898 5899 5899 5900 5900 5900 5900 5899 5899 5899 5898 5897 5897 5897 5896 5896 5895 5895 5894 5894 5894 5894 5895 5895 5895 5894
5893 5895 5895 5897 5896 5896 5892 5889 5889 5886 5886 5885 5885 5884 5882 5882 5889 5892 5893 5894 5895 5894 5894 5896 5897 5897 5897 5898 5897 5897 5897 5896 5896 5895 5895 5894 5893 5892 5892 5891 5890 5890 5891 5891 5891 5892 5892 5892 5892
5890 5890 5891 5890 5889 5889 5886 5884 5884 5882 5880 5879 5879 5880 5881 5882 5886 5889 5891 5892 5892 5892 5893 5894 5894 5894 5895 5895 5895 5894 5894 5893 5893 5892 5891 5890 5889 5888 5887 5887 5886 5886 5887 5887 5888 5888 5888 5888 5888
5886 5886 5885 5884 5883 5882 5880 5879 5879 5877 5872 5871 5871 5873 5877 5879 5883 5886 5888 5889 5889 5889 5890 5891 5892 5891 5892 5892 5891 5890 5890 5890 5889 5888 5887 5886 5885 5884 5883 5883 5883 5882 5882 5882 5883 5883 5884 5884 5884
5883 5882 5880 5879 5878 5876 5874 5873 5874 5871 5867 5864 5867 5870 5876 5878 5880 5882 5885 5885 5886 5887 5887 5888 5889 5889 5889 5888 5888 5887 5887 5886 5885 5884 5882 5882 5881 5880 5879 5879 5879 5878 5878 5878 5878 5879 5879 5879 5879
5881 5879 5877 5875 5874 5871 5869 5867 5867 5865 5865 5864 5866 5871 5875 5876 5877 5879 5881 5882 5883 5884 5885 5885 5886 5886 5885 5885 5884 5884 5882 5881 5881 5880 5879 5878 5877 5877 5875 5874 5874 5873 5874 5874 5874 5874 5874 5875 5875
5878 5876 5874 5872 5870 5868 5866 5865 5864 5861 5860 5862 5864 5869 5871 5872 5870 5872 5875 5878 5880 5881 5882 5882 5882 5882 5881 5881 5880 5879 5879 5878 5877 5876 5876 5874 5873 5873 5872 5871 5871 5870 5870 5870 5870 5870 5870 5870 5870
5876 5874 5872 5870 5867 5863 5862 5861 5858 5857 5855 5857 5860 5864 5866 5868 5866 5868 5872 5875 5876 5877 5879 5879 5879 5878 5878 5877 5876 5875 5875 5875 5873 5873 5872 5871 5870 5869 5868 5867 5867 5866 5866 5865 5865 5865 5865 5865 5865
5874 5873 5870 5868 5865 5862 5861 5857 5855 5855 5853 5855 5856 5859 5863 5866 5866 5867 5869 5870 5872 5874 5875 5876 5876 5875 5874 5874 5873 5873 5872 5871 5870 5870 5869 5867 5866 5865 5864 5863 5862 5862 5861 5861 5860 5860 5860 5860 5860
5874 5872 5869 5867 5864 5861 5857 5854 5852 5850 5851 5854 5857 5858 5860 5863 5864 5865 5866 5868 5871 5872 5872 5873 5873 5871 5871 5871 5870 5870 5870 5869 5868 5867 5865 5864 5863 5862 5860 5859 5858 5857 5856 5856 5855 5854 5854 5854 5854
5877 5874 5869 5866 5864 5860 5856 5852 5849 5847 5850 5853 5856 5857 5859 5860 5861 5863 5865 5867 5868 5869 5870 5870 5870 5869 5868 5868 5867 5867 5867 5866 5864 5863 5862 5860 5859 5858 5856 5855 5854 5852 5851 5850 5849 5848 5848 5848 5847
5876 5873 5869 5866 5862 5859 5856 5852 5849 5847 5851 5852 5854 5857 5858 5860 5861 5863 5864 5865 5865 5867 5867 5868 5868 5867 5866 5865 5865 5864 5863 5863 5861 5860 5859 5857 5855 5853 5851 5850 5848 5847 5845 5844 5843 5842 5841 5841 5840
5873 5872 5868 5865 5861 5858 5856 5854 5852 5849 5852 5853 5854 5856 5857 5860 5861 5862 5862 5863 5864 5865 5865 5866 5866 5865 5864 5863 5862 5861 5860 5859 5857 5856 5854 5852 5850 5848 5846 5844 5842 5840 5839 5838 5837 5835 5834 5834 5833
5873 5871 5868 5865 5861 5859 5856 5855 5852 5852 5852 5852 5853 5855 5857 5859 5860 5861 5861 5862 5862 5863 5863 5863 5863 5862 5861 5860 5859 5857 5856 5855 5853 5851 5849 5847 5845 5843 5840 5838 5836 5834 5833 5831 5830 5829 5828 5827 5826
5872 5870 5868 5864 5861 5858 5857 5856 5855 5853 5851 5852 5853 5855 5857 5858 5859 5859 5860 5861 5861 5861 5861 5860 5860 5859 5858 5857 5855 5854 5853 5851 5849 5847 5845 5842 5840 5838 5835 5833 5831 5828 5826 5825 5823 5822 5821 5820 5819
5871 5869 5866 5863 5860 5858 5857 5857 5857 5855 5854 5855 5855 5855 5856 5857 5858 5858 5859 5859 5859 5859 5859 5858 5857 5856 5855 5853 5852 5850 5848 5846 5844 5842 5840 5837 5835 5833 5830 5828 5825 5823 5821 5818 5817 5815 5814 5812 5812
5870 5868 5865 5861 5858 5857 5857 5857 5856 5855 5855 5856 5856 5857 5856 5856 5857 5857 5858 5858 5857 5857 5857 5856 5855 5853 5852 5850 5848 5847 5844 5842 5840 5838 5835 5833 5830 5828 5825 5823 5820 5817 5815 5812 5810 5808 5807 5805 5804
5869 5867 5864 5861 5858 5858 5859 5858 5857 5856 5856 5856 5856 5857 5856 5856 5856 5856 5856 5856 5856 5855 5854 5853 5852 5850 5849 5847 5845 5843 5841 5839 5836 5834 5831 5828 5825 5822 5820 5817 5814 5811 5809 5806 5804 5802 5800 5798 5796
5868 5867 5866 5864 5861 5860 5860 5859 5858 5856 5856 5856 5856 5856 5856 5856 5855 5856 5855 5855 5854 5853 5852 5850 5849 5847 5845 5844 5842 5840 5838 5835 5833 5830 5827 5824 5820 5817 5814 5811 5808 5805 5802 5799 5797 5794 5792 5790 5788
5867 5867 5867 5865 5862 5861 5859 5858 5858 5857 5857 5857 5856 5856 5855 5854 5854 5854 5853 5852 5851 5850 5849 5847 5846 5844 5842 5841 5839 5837 5834 5831 5829 5826 5822 5819 5816 5812 5809 5806 5802 5799 5796 5792 5789 5786 5784 5781 5779
5866 5865 5865 5864 5862 5859 5858 5857 5857 5857 5857 5856 5856 5855 5854 5853 5852 5852 5851 5850 5849 5848 5846 5845 5843 5841 5839 5837 5835 5833 5831 5828 5825 5822 5818 5814 5811 5807 5803 5799 5796 5792 5788 5785 5781 5778 5775 5772 5770
5864 5864 5863 5863 5862 5861 5858 5858 5855 5856 5856 5855 5855 5854 5853 5852 5851 5850 5849 5848 5847 5846 5844 5842 5841 5839 5837 5835 5832 5830 5827 5824 5821 5817 5814 5810 5806 5801 5797 5793 5789 5784 5780 5776 5772 5769 5766 5763 5760
5860 5861 5861 5861 5861 5861 5859 5859 5855 5855 5855 5854 5853 5852 5851 5850 5849 5848 5847 5846 5845 5843 5842 5840 5838 5836 5834 5832 5829 5826 5823 5820 5816 5813 5809 5804 5800 5795 5791 5786 5781 5776 5772 5767 5763 5759 5756 5753 5750